Waarnemingen

Advertentie
Mijn weer
Charleroi/Gosselies, België (6449): temperatuur & dauwpunt: 11.02.2019 15:00:00 - 17.02.2019 15:00:00 (CET)Charleroi/Gosselies, België (6449): windsnelheid & windstoten: 11.02.2019 15:00:00 - 17.02.2019 15:00:00 (CET)Charleroi/Gosselies, België (6449): windrichting: 11.02.2019 15:00:00 - 17.02.2019 15:00:00 (CET)Charleroi/Gosselies, België (6449): luchtdruk: 11.02.2019 15:00:00 - 17.02.2019 15:00:00 (CET)Charleroi/Gosselies, België (6449): zicht: 11.02.2019 15:00:00 - 17.02.2019 15:00:00 (CET)
Datum & Tijd tt [°C] td [°C] ff [km/u] ff [kn] fx [km/u] fx [kn] dd ppp [hPa] vv [km]
17.02.2019 15:00:00 14,9 -1,6 22 12 32 18 Z 1019,6 10
17.02.2019 14:00:00 14,4 -2,0 24 13 36 19 Z 1020,1 10
17.02.2019 13:00:00 14,2 -0,5 21 11 - - Z 1020,4 10
17.02.2019 12:00:00 12,5 -0,2 21 11 32 18 Z 1020,9 10
17.02.2019 11:00:00 11,0 0,3 21 11 32 18 Z 1021,5 10
17.02.2019 10:00:00 8,3 1,3 16 9 - - ZZO 1021,7 10
17.02.2019 09:00:00 6,6 0,9 16 9 25 14 ZZO 1022,0 10
17.02.2019 08:00:00 4,5 0,5 13 7 18 10 ZZO 1022,3 10
17.02.2019 07:00:00 5,2 -0,4 11 6 - - ZZO 1022,4 10
17.02.2019 06:00:00 5,3 -0,4 11 6 14 8 ZZO 1022,8 10
17.02.2019 05:00:00 5,1 1,1 9 5 14 8 ZZO 1023,1 10
17.02.2019 04:00:00 5,5 0,7 9 5 - - ZZO 1023,7 10
17.02.2019 03:00:00 6,1 0,9 11 6 14 8 ZZO 1024,1 10
17.02.2019 02:00:00 6,3 0,7 5 3 11 6 ZZO 1024,5 10
17.02.2019 01:00:00 6,5 -0,2 8 4 - - Z 1024,9 10
17.02.2019 00:00:00 7,1 0,4 9 5 18 10 Z 1025,2 10
16.02.2019 23:00:00 8,1 -0,2 9 5 18 10 Z 1025,5 10
16.02.2019 22:00:00 8,3 0,1 9 5 - - Z 1025,6 10
16.02.2019 21:00:00 9,5 0,5 11 6 22 12 Z 1025,3 10
16.02.2019 20:00:00 10,2 0,0 11 6 18 10 Z 1025,6 10
16.02.2019 19:00:00 11,6 0,3 9 5 - - Z 1025,5 10
16.02.2019 18:00:00 12,8 0,2 9 5 18 10 Z 1025,4 10
16.02.2019 17:00:00 14,4 0,6 11 6 18 10 ZZW 1025,5 10
16.02.2019 16:00:00 14,9 0,6 13 7 - - ZW 1025,8 10
16.02.2019 15:00:00 14,9 -0,3 16 9 25 14 ZW 1026,0 10
16.02.2019 14:00:00 14,5 -0,3 21 11 29 16 ZW 1026,2 10
16.02.2019 13:00:00 13,0 -0,5 21 11 - - ZW 1026,8 10
16.02.2019 12:00:00 11,6 1,0 18 10 25 14 ZW 1027,2 10
16.02.2019 11:00:00 9,3 1,1 16 9 22 12 ZW 1027,1 10
16.02.2019 10:00:00 7,9 1,2 16 9 - - Z 1027,0 10
16.02.2019 09:00:00 5,7 0,2 15 8 22 12 Z 1027,4 10
16.02.2019 08:00:00 5,2 0,0 13 7 18 10 ZZW 1026,9 10
16.02.2019 07:00:00 5,5 -0,3 9 5 - - ZZW 1026,5 10
16.02.2019 06:00:00 5,7 -0,1 11 6 22 12 Z 1026,7 10
16.02.2019 05:00:00 6,7 -0,1 15 8 22 12 Z 1026,5 10
16.02.2019 04:00:00 7,1 0,2 13 7 - - Z 1026,8 10
16.02.2019 03:00:00 7,7 -0,1 13 7 22 12 Z 1026,9 10
16.02.2019 02:00:00 8,0 -0,4 15 8 22 12 Z 1027,2 10
16.02.2019 01:00:00 8,3 0,1 13 7 - - Z 1027,3 10
16.02.2019 00:00:00 8,8 -0,3 13 7 22 12 Z 1027,1 10
15.02.2019 23:00:00 9,1 -0,7 11 6 18 10 Z 1027,3 10
15.02.2019 22:00:00 9,6 -0,7 13 7 - - Z 1027,7 10
15.02.2019 21:00:00 10,2 -1,5 11 6 22 12 Z 1027,8 10
15.02.2019 20:00:00 11,5 -1,9 13 7 18 10 Z 1028,1 10
15.02.2019 19:00:00 13,0 -2,5 13 7 - - Z 1028,0 10
15.02.2019 18:00:00 14,6 -1,4 9 5 14 8 ZZW 1027,8 10
15.02.2019 17:00:00 16,5 -0,6 9 5 18 10 ZZO 1027,7 10
15.02.2019 16:00:00 16,8 -0,7 9 5 - - ZZO 1028,2 10
15.02.2019 15:00:00 16,8 -0,6 11 6 22 12 ZZO 1028,9 10
15.02.2019 14:00:00 16,1 -0,8 11 6 22 12 ZZO 1029,7 10
15.02.2019 13:00:00 15,4 -2,0 15 8 - - ZZO 1030,4 10
15.02.2019 12:00:00 14,0 -2,1 13 7 22 12 ZZO 1031,0 10
15.02.2019 11:00:00 11,0 -0,6 13 7 22 12 ZZO 1031,4 10
15.02.2019 10:00:00 8,3 -1,7 13 7 - - ZZO 1031,8 10
15.02.2019 09:00:00 6,2 -2,2 11 6 18 10 ZZO 1032,3 10
15.02.2019 08:00:00 4,8 -2,8 9 5 18 10 ZZO 1032,1 10
15.02.2019 07:00:00 5,2 -2,7 13 7 - - Z 1032,0 10
15.02.2019 06:00:00 5,1 -2,7 11 6 18 10 ZZO 1032,3 10
15.02.2019 05:00:00 5,4 -2,6 9 5 22 12 ZZO 1032,3 10
15.02.2019 04:00:00 5,2 -2,4 13 7 - - ZZO 1032,4 10
15.02.2019 03:00:00 5,7 -2,5 13 7 18 10 ZZO 1032,7 10
15.02.2019 02:00:00 6,2 -3,1 8 4 14 8 ZZO 1033,1 10
15.02.2019 01:00:00 6,3 -3,4 11 6 - - Z 1033,1 10
15.02.2019 00:00:00 6,6 -3,1 9 5 18 10 ZO 1033,1 10
14.02.2019 23:00:00 7,0 -2,1 11 6 18 10 ZZO 1033,3 10
14.02.2019 22:00:00 7,2 -2,1 9 5 - - ZO 1033,2 10
14.02.2019 21:00:00 8,9 -1,6 11 6 18 10 ZO 1033,3 10
14.02.2019 20:00:00 10,2 -2,0 9 5 18 10 ZO 1033,2 10
14.02.2019 19:00:00 10,3 -1,2 8 4 - - O 1033,3 10
14.02.2019 18:00:00 11,9 -0,1 5 3 14 8 O 1033,1 10
14.02.2019 17:00:00 13,5 0,3 9 5 11 6 O 1033,2 10
14.02.2019 16:00:00 13,9 -0,2 5 3 - - OZO 1033,7 10
14.02.2019 15:00:00 13,3 -0,6 8 4 18 10 ZO 1034,0 10
14.02.2019 14:00:00 12,4 -1,0 8 4 14 8 ZO 1034,6 10
14.02.2019 13:00:00 11,7 -0,8 9 5 - - ZZO 1035,2 10
14.02.2019 12:00:00 9,3 -1,1 5 3 18 10 ZO 1035,9 10
14.02.2019 11:00:00 6,9 -1,4 9 5 18 10 ZZO 1035,9 10
14.02.2019 10:00:00 4,9 -1,2 5 3 - - ZO 1036,6 10
14.02.2019 09:00:00 3,0 -1,7 5 3 11 6 ZZO 1036,5 10
14.02.2019 08:00:00 2,3 -2,1 4 2 14 8 - 1036,1 10
14.02.2019 07:00:00 2,7 -2,2 9 5 - - ZZO 1035,5 10
14.02.2019 06:00:00 2,0 -2,3 11 6 14 8 ZZO 1035,7 10
14.02.2019 05:00:00 2,8 -2,2 13 7 14 8 Z 1035,4 10
14.02.2019 04:00:00 1,8 -2,6 8 4 - - ZZO 1035,7 10
14.02.2019 03:00:00 1,8 -2,7 9 5 14 8 ZZO 1035,8 10
14.02.2019 02:00:00 2,7 -3,0 11 6 14 8 Z 1035,7 20
14.02.2019 01:00:00 2,6 -2,4 11 6 - - ZZO 1036,0 10
14.02.2019 00:00:00 2,5 -2,0 8 4 11 6 ZZO 1036,1 10
13.02.2019 23:00:00 2,0 -0,1 4 2 14 8 ZZO 1036,3 10
13.02.2019 22:00:00 3,3 0,3 5 3 - - Z 1036,4 10
13.02.2019 21:00:00 3,8 0,5 9 5 11 6 Z 1036,2 10
13.02.2019 20:00:00 4,2 0,3 5 3 7 4 ZZW 1036,5 10
13.02.2019 19:00:00 5,0 0,5 5 3 - - ZZW 1036,4 10
13.02.2019 18:00:00 5,9 0,5 8 4 14 8 ZZW 1036,2 10
13.02.2019 17:00:00 6,5 0,1 9 5 18 10 ZZW 1036,2 10
13.02.2019 16:00:00 6,9 0,3 14 8 - - Z 1036,1 12
13.02.2019 15:00:00 7,5 0,7 15 8 25 14 ZZW 1036,4 10
13.02.2019 14:00:00 7,4 0,4 13 7 22 12 ZW 1036,6 10
13.02.2019 13:00:00 6,0 0,2 11 6 - - ZW 1037,2 10
13.02.2019 12:00:00 5,4 0,4 15 8 22 12 ZZW 1037,7 10
13.02.2019 11:00:00 4,0 0,1 15 8 22 12 ZZW 1037,7 10
13.02.2019 10:00:00 2,0 -0,8 11 6 - - Z 1037,8 10
13.02.2019 09:00:00 0,7 -0,8 8 4 14 8 Z 1037,8 9
13.02.2019 08:00:00 0,1 -1,3 11 6 14 8 ZZW 1037,6 7
13.02.2019 07:00:00 0,0 -1,2 11 6 - - ZZW 1037,3 3,5
13.02.2019 06:00:00 -0,1 -0,8 9 5 22 12 ZZW 1037,4 2,0
13.02.2019 05:00:00 0,1 -0,6 11 6 22 12 ZZW 1037,6 2,0
13.02.2019 04:00:00 0,2 -0,5 13 7 - - Z 1037,9 2,0
13.02.2019 03:00:00 0,3 -0,3 13 7 18 10 ZZW 1038,2 3,0
13.02.2019 02:00:00 0,3 -0,4 13 7 18 10 ZZW 1038,0 6
13.02.2019 01:00:00 0,9 -0,2 13 7 - - ZZW 1037,7 6
13.02.2019 00:00:00 1,4 0,3 8 4 22 12 ZZW 1037,5 6
12.02.2019 23:00:00 1,6 0,5 15 8 22 12 ZZW 1037,4 8
12.02.2019 22:00:00 1,8 0,6 15 8 - - ZZW 1037,4 8
12.02.2019 21:00:00 2,4 0,8 15 8 22 12 Z 1037,1 10
12.02.2019 20:00:00 3,3 1,3 15 8 22 12 ZZW 1036,9 10
12.02.2019 19:00:00 4,4 1,7 15 8 - - Z 1036,8 10
12.02.2019 18:00:00 5,5 1,5 16 9 22 12 ZZW 1036,3 10
12.02.2019 17:00:00 6,4 1,7 15 8 22 12 ZW 1036,0 10
12.02.2019 16:00:00 6,6 0,5 21 11 - - WZW 1035,7 10
12.02.2019 15:00:00 6,6 0,7 18 10 29 16 WZW 1035,7 10
12.02.2019 14:00:00 7,2 1,1 16 9 29 16 ZW 1035,7 10
12.02.2019 13:00:00 6,8 2,3 16 9 - - WZW 1036,1 10
12.02.2019 12:00:00 4,4 2,1 11 6 22 12 ZW 1036,7 10
12.02.2019 11:00:00 2,6 1,5 13 7 18 10 ZZW 1036,3 10
12.02.2019 10:00:00 1,6 0,9 11 6 - - Z 1036,4 3,5
12.02.2019 09:00:00 1,1 0,8 9 5 14 8 ZZW 1035,9 0,1
12.02.2019 08:00:00 0,9 0,6 9 5 18 10 ZZW 1035,3 0,1
12.02.2019 07:00:00 1,0 0,9 13 7 - - ZW 1034,7 0,1
12.02.2019 06:00:00 1,1 1,0 11 6 14 8 ZZW 1034,7 0,1
12.02.2019 05:00:00 1,4 1,4 8 4 11 6 ZZW 1034,8 0,1
12.02.2019 04:00:00 1,0 1,0 11 6 - - ZW 1034,8 0,1
12.02.2019 03:00:00 0,9 0,9 8 4 11 6 ZW 1034,8 0,1
12.02.2019 02:00:00 0,7 0,6 8 4 11 6 W 1034,5 0,1
12.02.2019 01:00:00 1,3 1,2 8 4 - - W 1034,2 0,5
12.02.2019 00:00:00 2,0 1,6 8 4 11 6 W 1033,3 4,0
11.02.2019 23:00:00 2,4 1,7 8 4 11 6 W 1032,8 9
11.02.2019 22:00:00 2,7 1,7 5 3 - - W 1031,9 10
11.02.2019 21:00:00 3,4 2,0 9 5 18 10 WNW 1031,6 10
11.02.2019 20:00:00 3,9 1,8 8 4 14 8 NW 1030,4 10
11.02.2019 19:00:00 4,9 2,1 8 4 - - WNW 1029,1 10
11.02.2019 18:00:00 5,6 2,0 9 5 22 12 NW 1028,3 10
11.02.2019 17:00:00 6,1 2,4 9 5 25 14 NW 1027,1 10
11.02.2019 16:00:00 6,4 2,1 11 6 - - NW 1025,8 10
11.02.2019 15:00:00 6,3 2,2 13 7 25 14 WNW 1024,8 10

tt = temperatuur
td = dauwpunt
ff = windsnelheid
fx = windstoten
dd = windrichting
ppp = luchtdruk
vv = zicht

Weerstations in de omgeving